This demonstration page uses our WeatherBlox Daily Observations layout. Learn more.

Left ArrowRight Arrow

53.62937, 11.41316

Hourly Observations for April 26, 2018

Temp ( °F °C ) Dew Point ( °F °C ) Humidity (%) Winds ( mph kmh ) Pressure ( in mb ) Visibility ( mi km ) Precip ( " mm )
6:50 am 06:50 Mostly Cloudy 45 7 45 7 100 100 S 7 11 29.80 1009 30 48 N/A
7:20 am 07:20 Mostly Cloudy with Showers 45 7 45 7 100 100 SW 8 13 29.80 1009 4 7 N/A
7:50 am 07:50 Mostly Cloudy with Light Showers 45 7 45 7 100 100 SSW 6 9 29.80 1009 30 48 N/A
8:20 am 08:20 Mostly Cloudy 45 7 45 7 100 100 SSW 6 9 29.80 1009 30 48 N/A
8:50 am 08:50 Mostly Cloudy 46 8 46 8 100 100 S 5 7 29.80 1009 30 48 N/A
9:20 am 09:20 Mostly Cloudy 46 8 46 8 100 100 SSW 7 11 29.83 1010 30 48 N/A
9:50 am 09:50 Mostly Cloudy 48 9 46 8 94 94 SSW 8 13 29.83 1010 30 48 N/A
10:20 am 10:20 Mostly Cloudy 50 10 46 8 88 88 SSW 13 20 29.83 1010 30 48 N/A
10:50 am 10:50 Partly Cloudy with Light Showers 48 9 46 8 94 94 SW 14 22 29.83 1010 30 48 N/A
11:20 am 11:20 Partly Cloudy with Showers Nearby 52 11 45 7 77 77 SW 12 19 29.83 1010 30 48 N/A
11:50 am 11:50 Partly Cloudy with Light Showers 50 10 45 7 82 82 SW 12 19 29.83 1010 30 48 N/A
12:20 pm 12:20 Partly Cloudy with Showers Nearby 48 9 45 7 87 87 SW 9 15 29.83 1010 30 48 N/A
12:50 pm 12:50 Partly Cloudy with Showers Nearby 50 10 45 7 82 82 SW 15 24 29.85 1011 30 48 N/A
1:20 pm 13:20 Partly Cloudy with Showers Nearby 46 8 45 7 93 93 SSW 16 26 29.85 1011 30 48 N/A
1:50 pm 13:50 Partly Cloudy with Showers Nearby 54 12 46 8 77 77 SW 12 19 29.85 1011 30 48 N/A
2:20 pm 14:20 Partly Cloudy with Showers Nearby 50 10 41 5 71 71 SW 15 24 29.85 1011 30 48 N/A
2:50 pm 14:50 Partly Cloudy 54 12 45 7 72 72 SSW 13 20 29.85 1011 30 48 N/A
3:20 pm 15:20 Partly Cloudy with Showers Nearby 54 12 43 6 67 67 SSW 15 24 29.85 1011 30 48 N/A
3:50 pm 15:50 Partly Cloudy with Showers Nearby 55 13 41 5 59 59 WSW 9 15 29.85 1011 30 48 N/A
4:20 pm 16:20 Partly Cloudy with Showers Nearby 55 13 39 4 55 55 WSW 10 17 29.88 1012 30 48 N/A
4:50 pm 16:50 Partly Cloudy with Showers Nearby 52 11 39 4 62 62 WSW 13 20 29.88 1012 30 48 N/A
5:20 pm 17:20 Partly Cloudy 50 10 43 6 76 76 SSW 15 24 29.88 1012 30 48 N/A
5:50 pm 17:50 Partly Cloudy 52 11 43 6 72 72 SW 12 19 29.88 1012 30 48 N/A
6:20 pm 18:20 Partly Cloudy 52 11 37 3 58 58 WSW 12 19 29.88 1012 30 48 N/A
6:50 pm 18:50 Partly Cloudy 50 10 37 3 62 62 WSW 14 22 29.88 1012 30 48 N/A
7:20 pm 19:20 Mostly Cloudy 50 10 39 4 67 67 WSW 10 17 29.91 1013 30 48 N/A
7:50 pm 19:50 Mostly Cloudy 50 10 39 4 67 67 W 10 17 29.91 1013 30 48 N/A
8:20 pm 20:20 Partly Cloudy 48 9 39 4 71 71 WSW 10 17 29.91 1013 30 48 N/A
8:50 pm 20:50 Mostly Clear 46 8 41 5 82 82 WSW 9 15 29.94 1014 7 11 N/A

Powered by AerisWeather